Roseburg, OR

4:02 PM PDT on August 30, 2016 (GMT -0700)
Roseburg Regional

Weather History for KRBG - January, 2014

Change the Weather History Date:

Wednesday, January 8, 2014

  Actual Average Record
Temperature  
Mean Temperature 51 °F 42 °F  
Max Temperature 57 °F 49 °F 63 °F (1953)
Min Temperature 44 °F 36 °F 7 °F (1937)
Degree Days  
Heating Degree Days 14 22  
Month to date heating degree days 198 183  
Since 1 July heating degree days 1981 1823  
Cooling Degree Days 0 0  
Month to date cooling degree days 0 0  
Year to date cooling degree days 0 0  
Moisture  
Dew Point 44 °F    
Average Humidity 75    
Maximum Humidity 93    
Minimum Humidity 57    
Precipitation  
Precipitation 0.17 in 0.22 in 1.59 in (1959)
Month to date precipitation 0.38 1.72  
Year to date precipitation 0.38 1.72  
Sea Level Pressure  
Sea Level Pressure 30.09 in    
Wind  
Wind Speed 3 mph (South)    
Max Wind Speed 12 mph    
Max Gust Speed 16 mph    
Visibility 4 miles    
Events Fog , Rain    
T = Trace of Precipitation, MM = Missing Value Source: NWS Daily Summary

Daily Weather History Graph

Daily Weather History Graph

Search for Another Location

Airport or City:

Trip Planner

Search our weather history database for the weather conditions in past years. The results will help you decide how hot, cold, wet, or windy it might be!

Date:

Astronomy

Jan. 08, 2014 Rise Set
Actual Time 7:45 AM PST 4:55 PM PST
Civil Twilight 7:13 AM PST 5:27 PM PST
Nautical Twilight 6:37 AM PST 6:03 PM PST
Astronomical Twilight 6:03 AM PST 6:37 PM PST
Moon 11:56 AM PST (1/8) 12:50 AM PST (1/8)
Length of Visible Light 10h 14m
Length of Day
9h 10m
First Quarter, 57% of the Moon is Illuminated
Jan 8
First Quarter
Jan 15
Full
Jan 23
Last Quarter
Jan 30
New
Feb 6
First Quarter

Hourly Weather History & Observations

Time (PST) Temp. Dew Point Humidity Pressure Visibility Wind Dir Wind Speed Gust Speed Precip Events Conditions
12:53 AM 46.9 °F 45.0 °F 93% 30.13 in 4.0 mi Calm Calm - 0.00 in   Overcast
1:29 AM 46.9 °F 44.1 °F 90% 30.12 in 3.0 mi Calm Calm - N/A   Overcast
1:34 AM 46.9 °F 44.1 °F 90% 30.12 in 3.0 mi Calm Calm - N/A   Overcast
1:51 AM 46.4 °F 44.6 °F 93% 30.11 in 2.5 mi Calm Calm - N/A   Overcast
1:53 AM 46.9 °F 44.1 °F 90% 30.12 in 2.5 mi Calm Calm - N/A   Overcast
2:01 AM 46.9 °F 44.1 °F 90% 30.12 in 3.0 mi Calm Calm - N/A   Overcast
2:21 AM 46.0 °F 44.1 °F 93% 30.12 in 2.0 mi Calm Calm - N/A   Overcast
2:30 AM 45.0 °F 44.1 °F 97% 30.12 in 0.8 mi Calm Calm - N/A   Mostly Cloudy
2:38 AM 45.0 °F 43.0 °F 93% 30.12 in 0.2 mi Calm Calm - N/A Fog Fog
2:53 AM 44.1 °F 42.1 °F 93% 30.13 in 0.2 mi Calm Calm - N/A Fog Fog
3:27 AM 44.1 °F 43.0 °F 96% 30.13 in 0.2 mi Calm Calm - N/A Fog Fog
3:41 AM 45.0 °F 43.0 °F 93% 30.12 in 0.2 mi Calm Calm - N/A Fog Fog
3:53 AM 45.0 °F 43.0 °F 93% 30.12 in 0.2 mi Calm Calm - N/A Fog Fog
4:06 AM 45.0 °F 43.0 °F 93% 30.12 in 0.5 mi Calm Calm - N/A Fog Fog
4:34 AM 44.1 °F 42.1 °F 93% 30.12 in 1.2 mi Calm Calm - N/A   Overcast
4:50 AM 44.6 °F 42.8 °F 93% 30.12 in 0.5 mi Calm Calm - N/A Fog Fog
4:53 AM 44.1 °F 42.1 °F 93% 30.13 in 0.2 mi Calm Calm - N/A Fog Fog
5:01 AM 45.0 °F 43.0 °F 93% 30.12 in 1.0 mi Calm Calm - N/A   Overcast
5:11 AM 45.0 °F 43.0 °F 93% 30.11 in 2.0 mi Calm Calm - N/A   Overcast
5:19 AM 45.0 °F 43.0 °F 93% 30.11 in 1.0 mi Calm Calm - N/A   Overcast
5:22 AM 45.0 °F 42.1 °F 90% 30.11 in 0.8 mi Calm Calm - N/A   Overcast
5:32 AM 45.0 °F 43.0 °F 93% 30.10 in 2.0 mi Calm Calm - N/A   Overcast
5:40 AM 45.0 °F 43.0 °F 93% 30.10 in 3.0 mi Calm Calm - N/A   Overcast
5:53 AM 45.0 °F 43.0 °F 93% 30.11 in 5.0 mi Calm Calm - N/A   Overcast
6:53 AM 45.0 °F 43.0 °F 93% 30.10 in 4.0 mi Calm Calm - N/A   Mostly Cloudy
7:53 AM 45.0 °F 43.0 °F 93% 30.08 in 5.0 mi Calm Calm - N/A   Overcast
8:16 AM 45.0 °F 42.1 °F 90% 30.06 in 2.5 mi Calm Calm - N/A   Overcast
8:28 AM 45.0 °F 43.0 °F 93% 30.07 in 4.0 mi Calm Calm - N/A   Overcast
8:53 AM 45.0 °F 43.0 °F 93% 30.10 in 4.0 mi Calm Calm - N/A   Mostly Cloudy
9:53 AM 51.1 °F 46.0 °F 83% 30.08 in 10.0 mi SW 3.5 mph - N/A   Mostly Cloudy
10:53 AM 52.0 °F 46.0 °F 80% 30.09 in 10.0 mi Calm Calm - N/A   Overcast
11:53 AM 55.9 °F 46.0 °F 69% 30.07 in 10.0 mi SSE 6.9 mph - N/A   Overcast
12:53 PM 57.0 °F 44.1 °F 62% 30.01 in 10.0 mi South 6.9 mph - N/A   Overcast
1:53 PM 57.0 °F 43.0 °F 59% 29.98 in 10.0 mi SSW 8.1 mph - N/A   Overcast
2:53 PM 57.0 °F 44.1 °F 62% 29.99 in 4.0 mi South 5.8 mph - 0.00 in Rain Light Rain
3:53 PM 53.1 °F 46.9 °F 80% 29.99 in 10.0 mi Calm Calm - 0.03 in Rain Light Rain
4:53 PM 53.1 °F 45.0 °F 74% 30.01 in 10.0 mi SW 4.6 mph - 0.01 in   Overcast
5:53 PM 52.0 °F 43.0 °F 71% 30.04 in 7.0 mi SW 9.2 mph - 0.01 in Rain Light Rain
6:53 PM 51.1 °F 43.0 °F 74% 30.03 in 10.0 mi South 8.1 mph - 0.02 in   Overcast
7:53 PM 51.1 °F 43.0 °F 74% 30.03 in 10.0 mi South 4.6 mph - N/A   Mostly Cloudy
8:53 PM 50.0 °F 43.0 °F 77% 30.04 in 5.0 mi South 4.6 mph - 0.02 in Rain Light Rain
9:40 PM 48.0 °F 45.0 °F 89% 30.05 in 2.5 mi SSE 4.6 mph - 0.06 in Rain Light Rain
9:53 PM 48.9 °F 45.0 °F 86% 30.06 in 9.0 mi Calm Calm - 0.06 in   Overcast
10:53 PM 48.0 °F 45.0 °F 89% 30.08 in 4.0 mi SSE 4.6 mph - 0.01 in Rain Light Rain
11:17 PM 48.9 °F 45.0 °F 86% 30.09 in 6.0 mi Variable 3.5 mph - 0.00 in Rain Light Rain
11:34 PM 48.9 °F 45.0 °F 86% 30.09 in 7.0 mi NE 3.5 mph - 0.00 in Rain Light Rain
11:53 PM 48.0 °F 45.0 °F 89% 30.11 in 2.5 mi Calm Calm - 0.01 in Rain Light Rain